TimeEST,TemperatureF,Dew PointF,Humidity,Sea Level PressureIn,VisibilityMPH,Wind Direction,Wind SpeedMPH,Gust SpeedMPH,PrecipitationIn,Events,Conditions,WindDirDegrees,DateUTC
12:53 AM,35.6,24.8,65,30.12,10.0,SW,6.9,-,N/A,,Clear,220,2012-12-14 05:53:00
1:53 AM,35.1,26.1,70,30.15,10.0,SW,6.9,-,N/A,,Clear,220,2012-12-14 06:53:00
2:53 AM,34.0,26.1,73,30.17,10.0,SW,9.2,-,N/A,,Clear,220,2012-12-14 07:53:00
3:43 AM,33.8,26.6,75,30.16,10.0,WSW,6.9,-,N/A,,Mostly Cloudy,250,2012-12-14 08:43:00
3:53 AM,33.1,26.1,75,30.18,10.0,WSW,6.9,-,N/A,,Mostly Cloudy,250,2012-12-14 08:53:00
4:05 AM,33.8,26.6,75,30.16,10.0,WSW,5.8,-,N/A,,Scattered Clouds,240,2012-12-14 09:05:00
4:53 AM,33.1,26.1,75,30.18,10.0,SW,6.9,-,N/A,,Clear,230,2012-12-14 09:53:00
5:53 AM,33.1,26.1,75,30.19,10.0,SW,8.1,-,N/A,,Clear,230,2012-12-14 10:53:00
6:53 AM,30.9,25.0,79,30.20,10.0,WSW,5.8,-,N/A,,Clear,240,2012-12-14 11:53:00
7:53 AM,30.0,25.0,82,30.21,10.0,WSW,4.6,-,N/A,,Clear,240,2012-12-14 12:53:00
8:53 AM,30.9,26.1,82,30.22,10.0,SW,5.8,-,N/A,,Clear,230,2012-12-14 13:53:00
9:53 AM,34.0,28.0,79,30.25,10.0,SW,4.6,-,N/A,,Clear,230,2012-12-14 14:53:00
10:53 AM,37.9,30.0,73,30.27,9.0,NNW,4.6,-,N/A,,Clear,340,2012-12-14 15:53:00
11:53 AM,39.0,30.0,70,30.26,10.0,NNE,5.8,-,N/A,,Clear,30,2012-12-14 16:53:00
12:53 PM,39.9,30.0,68,30.25,10.0,East,3.5,-,N/A,,Clear,80,2012-12-14 17:53:00
1:53 PM,41.0,30.0,65,30.24,10.0,Calm,Calm,-,N/A,,Clear,0,2012-12-14 18:53:00
2:53 PM,43.0,30.0,60,30.22,10.0,ENE,3.5,-,N/A,,Clear,70,2012-12-14 19:53:00
3:53 PM,39.0,30.0,70,30.23,10.0,ENE,8.1,-,N/A,,Clear,60,2012-12-14 20:53:00
4:53 PM,36.0,30.0,79,30.22,10.0,ENE,6.9,-,N/A,,Clear,60,2012-12-14 21:53:00
5:53 PM,34.0,28.0,79,30.22,10.0,ENE,6.9,-,N/A,,Clear,70,2012-12-14 22:53:00
6:53 PM,33.1,28.0,82,30.25,10.0,ENE,5.8,-,N/A,,Clear,60,2012-12-14 23:53:00
7:53 PM,32.0,28.9,88,30.26,9.0,ENE,6.9,-,N/A,,Clear,60,2012-12-15 00:53:00
8:53 PM,33.1,28.9,85,30.25,8.0,East,8.1,-,N/A,,Clear,90,2012-12-15 01:53:00
9:53 PM,32.0,28.9,88,30.25,7.0,ENE,6.9,-,N/A,,Clear,70,2012-12-15 02:53:00
10:53 PM,30.9,28.0,89,30.23,7.0,ENE,6.9,-,N/A,,Clear,70,2012-12-15 03:53:00
11:53 PM,30.9,28.0,89,30.22,6.0,ENE,6.9,-,N/A,,Clear,70,2012-12-15 04:53:00